| time (UTC) | temp F | wind direction | speed MPH | gust MPH | rain 1hr in | rain 24hr in | rain mn in | humidity % | barometer mb |
| 20260506001257 | 60 | 181 | 9.0 | 16.0 | 0.00 | 0.00 | 0.00 | 77 | 1012.4 |
| 20260506000234 | 59 | 221 | 11.0 | 15.0 | 0.00 | 0.00 | 0.00 | 79 | 1012.6 |
| 20260505235213 | 59 | 195 | 10.0 | 14.0 | 0.00 | 0.00 | 0.00 | 78 | 1012.8 |
| 20260505234208 | 60 | 200 | 11.0 | 17.0 | 0.00 | 0.00 | 0.00 | 78 | 1012.8 |
| 20260505233136 | 59 | 236 | 11.0 | 18.0 | 0.00 | 0.00 | 0.00 | 77 | 1012.9 |
| 20260505232144 | 60 | 197 | 11.0 | 18.0 | 0.00 | 0.00 | 0.00 | 76 | 1013.1 |
| 20260505231200 | 60 | 235 | 11.0 | 17.0 | 0.00 | 0.00 | 0.00 | 77 | 1013.2 |
| 20260505230202 | 59 | 215 | 10.0 | 16.0 | 0.00 | 0.00 | 0.00 | 78 | 1013.1 |
| 20260505225147 | 59 | 213 | 10.0 | 14.0 | 0.00 | 0.00 | 0.00 | 80 | 1013.3 |
| 20260505224117 | 60 | 201 | 9.0 | 16.0 | 0.00 | 0.00 | 0.00 | 78 | 1013.4 |
| 20260505223054 | 59 | 196 | 9.0 | 16.0 | 0.00 | 0.00 | 0.00 | 79 | 1013.4 |
| 20260505222020 | 60 | 219 | 8.0 | 16.0 | 0.00 | 0.00 | 0.00 | 79 | 1013.5 |
| 20260505221035 | 59 | 238 | 9.0 | 16.0 | 0.00 | 0.00 | 0.00 | 80 | 1013.5 |
| 20260505220051 | 59 | 205 | 8.0 | 12.0 | 0.00 | 0.00 | 0.00 | 80 | 1013.5 |
| 20260505215035 | 59 | 196 | 9.0 | 12.0 | 0.00 | 0.00 | 0.00 | 80 | 1013.6 |
| 20260505214037 | 59 | 198 | 8.0 | 15.0 | 0.00 | 0.00 | 0.00 | 81 | 1013.7 |
| 20260505213017 | 59 | 217 | 8.0 | 15.0 | 0.00 | 0.00 | 0.00 | 82 | 1013.6 |
| 20260505212025 | 58 | 189 | 7.0 | 15.0 | 0.00 | 0.00 | 0.00 | 83 | 1013.7 |
| 20260505211001 | 57 | 194 | 8.0 | 14.0 | 0.00 | 0.00 | 0.00 | 84 | 1013.7 |
| 20260505205933 | 58 | 205 | 8.0 | 14.0 | 0.00 | 0.00 | 0.00 | 83 | 1013.8 |
| 20260505204901 | 58 | 200 | 6.0 | 11.0 | 0.00 | 0.00 | 0.00 | 83 | 1013.8 |
| 20260505203917 | 57 | 218 | 8.0 | 13.0 | 0.00 | 0.00 | 0.00 | 86 | 1014.0 |
| 20260505201809 | 57 | 199 | 6.0 | 11.0 | 0.00 | 0.00 | 0.00 | 86 | 1013.8 |
| 20260505200814 | 56 | 225 | 7.0 | 10.0 | 0.00 | 0.00 | 0.00 | 86 | 1013.9 |
| 20260505195813 | 56 | 206 | 6.0 | 12.0 | 0.00 | 0.00 | 0.00 | 88 | 1013.8 |
| 20260505194800 | 56 | 208 | 6.0 | 12.0 | 0.00 | 0.00 | 0.00 | 86 | 1013.9 |
| 20260505193739 | 56 | 198 | 6.0 | 11.0 | 0.00 | 0.00 | 0.00 | 87 | 1013.9 |
| 20260505192736 | 55 | 188 | 7.0 | 13.0 | 0.00 | 0.00 | 0.00 | 87 | 1013.9 |
| 20260505190600 | 55 | 198 | 6.0 | 10.0 | 0.00 | 0.00 | 0.00 | 88 | 1014.0 |
| 20260505185621 | 55 | 209 | 5.0 | 10.0 | 0.00 | 0.00 | 0.00 | 88 | 1013.9 |
| 20260505183519 | 54 | 221 | 5.0 | 10.0 | 0.00 | 0.00 | 0.00 | 90 | 1013.8 |
| 20260505182533 | 54 | 226 | 5.0 | 8.0 | 0.00 | 0.00 | 0.00 | 90 | 1013.8 |
| 20260505181526 | 54 | 229 | 5.0 | 9.0 | 0.00 | 0.00 | 0.00 | 91 | 1013.8 |
| 20260505175404 | 54 | 245 | 5.0 | 9.0 | 0.00 | 0.00 | 0.00 | 90 | 1013.8 |
| 20260505174422 | 54 | 208 | 5.0 | 9.0 | 0.00 | 0.00 | 0.00 | 90 | 1013.8 |
| 20260505172337 | 54 | 186 | 5.0 | 9.0 | 0.00 | 0.00 | 0.00 | 91 | 1013.6 |
| 20260505171304 | 54 | 188 | 6.0 | 9.0 | 0.00 | 0.00 | 0.00 | 91 | 1013.5 |
| 20260505170244 | 54 | 207 | 6.0 | 10.0 | 0.00 | 0.00 | 0.00 | 90 | 1013.5 |
| 20260505165210 | 54 | 212 | 5.0 | 11.0 | 0.00 | 0.00 | 0.00 | 90 | 1013.5 |
| 20260505164221 | 54 | 182 | 6.0 | 11.0 | 0.00 | 0.00 | 0.00 | 89 | 1013.5 |
| 20260505163206 | 54 | 196 | 5.0 | 8.0 | 0.00 | 0.00 | 0.00 | 89 | 1013.4 |
| 20260505162144 | 54 | 179 | 4.0 | 8.0 | 0.00 | 0.00 | 0.00 | 89 | 1013.4 |
| 20260505161157 | 54 | 240 | 5.0 | 9.0 | 0.00 | 0.00 | 0.00 | 89 | 1013.4 |
| 20260505152818 | 53 | 222 | 7.0 | 11.0 | 0.00 | 0.00 | 0.00 | 89 | 1013.2 |
| 20260505151815 | 53 | 234 | 5.0 | 9.0 | 0.00 | 0.00 | 0.00 | 90 | 1013.1 |
| 20260505150753 | 53 | 196 | 6.0 | 11.0 | 0.00 | 0.00 | 0.00 | 90 | 1013.1 |
| 20260505130227 | 51 | 192 | 6.0 | 10.0 | 0.00 | 0.00 | 0.00 | 92 | 1011.6 |
| 20260505124039 | 50 | 178 | 5.0 | 8.0 | 0.00 | 0.00 | 0.00 | 92 | 1011.3 |
| 20260505123031 | 50 | 184 | 5.0 | 9.0 | 0.00 | 0.00 | 0.00 | 91 | 1011.2 |
| 20260505122018 | 51 | 190 | 6.0 | 9.0 | 0.00 | 0.00 | 0.00 | 90 | 1011.1 |
| 20260505120956 | 51 | 179 | 4.0 | 10.0 | 0.00 | 0.00 | 0.00 | 89 | 1011.1 |
| 20260505115958 | 51 | 182 | 5.0 | 10.0 | 0.00 | 0.00 | 0.00 | 89 | 1010.9 |
| 20260505115023 | 51 | 157 | 4.0 | 10.0 | 0.00 | 0.00 | 0.00 | 89 | 1011.0 |
| 20260505113955 | 51 | 183 | 3.0 | 10.0 | 0.00 | 0.00 | 0.00 | 88 | 1010.7 |
| 20260505111809 | 52 | 151 | 2.0 | 6.0 | 0.00 | 0.00 | 0.00 | 87 | 1010.6 |
| 20260505110757 | 52 | 157 | 1.0 | 4.0 | 0.00 | 0.00 | 0.00 | 86 | 1010.4 |
| 20260505101527 | 53 | 194 | 7.0 | 11.0 | 0.00 | 0.00 | 0.00 | 84 | 1009.8 |
| 20260505100509 | 54 | 198 | 8.0 | 12.0 | 0.00 | 0.00 | 0.00 | 82 | 1009.7 |
| 20260505095523 | 54 | 194 | 9.0 | 17.0 | 0.00 | 0.00 | 0.00 | 81 | 1009.7 |
| 20260505094524 | 55 | 195 | 7.0 | 17.0 | 0.00 | 0.00 | 0.00 | 80 | 1009.7 |
| 20260505093547 | 55 | 185 | 7.0 | 14.0 | 0.00 | 0.00 | 0.00 | 79 | 1009.5 |
| 20260505091458 | 56 | 181 | 6.0 | 16.0 | 0.00 | 0.00 | 0.00 | 78 | 1009.3 |
| 20260505090459 | 55 | 200 | 6.0 | 15.0 | 0.00 | 0.00 | 0.00 | 80 | 1009.3 |
| 20260505084304 | 53 | 199 | 9.0 | 17.0 | 0.00 | 0.00 | 0.00 | 85 | 1009.2 |
| 20260505082208 | 53 | 190 | 8.0 | 15.0 | 0.00 | 0.00 | 0.00 | 85 | 1009.0 |
| 20260505081216 | 53 | 190 | 6.0 | 14.0 | 0.00 | 0.00 | 0.00 | 84 | 1008.8 |
| 20260505080224 | 53 | 210 | 6.0 | 12.0 | 0.00 | 0.00 | 0.00 | 84 | 1008.6 |
| 20260505075236 | 54 | 181 | 3.0 | 8.0 | 0.00 | 0.00 | 0.00 | 84 | 1008.5 |
| 20260505073040 | 53 | 143 | 1.0 | 5.0 | 0.00 | 0.00 | 0.00 | 85 | 1008.2 |
| 20260505072039 | 53 | 117 | 1.0 | 7.0 | 0.00 | 0.00 | 0.00 | 85 | 1008.1 |
| 20260505071056 | 53 | 130 | 1.0 | 7.0 | 0.00 | 0.00 | 0.00 | 84 | 1008.1 |
| 20260505070036 | 53 | 115 | 1.0 | 3.0 | 0.00 | 0.00 | 0.00 | 84 | 1008.0 |
| 20260505065055 | 53 | 135 | 0.0 | 3.0 | 0.00 | 0.00 | 0.00 | 85 | 1007.9 |
| 20260505064057 | 53 | 171 | 0.0 | 6.0 | 0.00 | 0.00 | 0.00 | 85 | 1007.8 |
| 20260505063024 | 53 | 109 | 0.0 | 4.0 | 0.00 | 0.00 | 0.00 | 84 | 1007.7 |
| 20260505062048 | 53 | 71 | 0.0 | 4.0 | 0.00 | 0.00 | 0.00 | 84 | 1007.7 |
| 20260505055930 | 53 | 38 | 0.0 | 0.0 | 0.00 | 0.00 | 0.00 | 85 | 1007.6 |
| 20260505052657 | 53 | 72 | 0.0 | 3.0 | 0.00 | 0.00 | 0.00 | 85 | 1007.3 |
| 20260505051716 | 53 | 205 | 0.0 | 0.0 | 0.00 | 0.00 | 0.00 | 85 | 1007.2 |
| 20260505050716 | 53 | 200 | 0.0 | 2.0 | 0.00 | 0.00 | 0.00 | 85 | 1007.1 |
| 20260505041334 | 54 | 106 | 0.0 | 2.0 | 0.00 | 0.00 | 0.00 | 84 | 1006.7 |
| 20260505040345 | 54 | 135 | 0.0 | 4.0 | 0.00 | 0.00 | 0.00 | 84 | 1006.7 |
| 20260505035405 | 54 | 107 | 1.0 | 5.0 | 0.00 | 0.00 | 0.00 | 83 | 1006.6 |
| 20260505033226 | 56 | 180 | 0.0 | 3.0 | 0.00 | 0.00 | 0.00 | 81 | 1006.3 |
| 20260505031103 | 57 | 109 | 0.0 | 3.0 | 0.00 | 0.00 | 0.00 | 78 | 1006.1 |
| 20260505030059 | 57 | 139 | 0.0 | 2.0 | 0.00 | 0.00 | 0.00 | 79 | 1006.1 |
| 20260505025052 | 58 | 156 | 1.0 | 4.0 | 0.00 | 0.00 | 0.00 | 78 | 1006.0 |
| 20260505024052 | 59 | 49 | 1.0 | 4.0 | 0.00 | 0.00 | 0.00 | 76 | 1006.0 |
| 20260505023035 | 60 | 152 | 1.0 | 6.0 | 0.00 | 0.00 | 0.00 | 75 | 1006.1 |
| 20260505022034 | 60 | 148 | 1.0 | 6.0 | 0.00 | 0.00 | 0.00 | 74 | 1006.1 |
| 20260505014730 | 62 | 187 | 1.0 | 7.0 | 0.00 | 0.00 | 0.00 | 70 | 1006.4 |
| 20260505013729 | 63 | 161 | 2.0 | 8.0 | 0.00 | 0.00 | 0.00 | 67 | 1006.4 |
| 20260505012738 | 65 | 115 | 2.0 | 8.0 | 0.00 | 0.00 | 0.00 | 65 | 1006.4 |
| 20260505010642 | 67 | 163 | 3.0 | 6.0 | 0.00 | 0.00 | 0.00 | 62 | 1006.6 |
| 20260505004524 | 68 | 165 | 7.0 | 13.0 | 0.00 | 0.00 | 0.00 | 59 | 1006.6 |
| 20260505003539 | 71 | 196 | 5.0 | 8.0 | 0.00 | 0.00 | 0.00 | 49 | 1006.7 |